This demonstration page uses our WeatherBlox Daily Observations layout. Learn more.

39.92423, -83.80882

Hourly Observations for July 8, 2016

Temp ( °F °C ) Dew Point ( °F °C ) Humidity (%) Winds ( mph kmh ) Pressure ( in mb ) Visibility ( mi km ) Precip ( " mm )
12:56 am 00:56 Clear 75 23.8 72 22.2 91 91 SSW 7 11 29.84 1011 10 16.0934 0 0
1:56 am 01:56 Clear 74 23.3 72 22.2 94 94 SSW 10 17 29.83 1010 10 16.0934 0 0
2:56 am 02:56 Partly Cloudy 74 23.3 70 21.1 88 88 SW 12 19 29.84 1011 10 16.0934 0 0
3:26 am 03:26 Mostly Cloudy 73 23 70 21 89 89 WSW 9 15 29.85 1011 10 16.0934 0 0
3:56 am 03:56 Cloudy 74 23.3 70 21.1 88 88 WSW 9 15 29.84 1011 10 16.0934 0 0
4:56 am 04:56 Cloudy 73 22.7 70 21.1 91 91 WSW 12 19 29.84 1011 10 16.0934 0 0
5:18 am 05:18 Cloudy 73 23 70 21 89 89 WSW 14 22 29.85 1011 10 16.0934 0 0
5:56 am 05:56 Cloudy 72 22.2 70 21.1 94 94 W 10 17 29.86 1011 10 16.0934 0 0
6:25 am 06:25 Cloudy 72 22 70 21 94 94 WSW 10 17 29.85 1011 10 16.0934 0 0
6:56 am 06:56 Cloudy 72 22.2 71 21.6 96 96 W 8 13 29.86 1011 10 16.0934 0 0
7:56 am 07:56 Cloudy 73 22.7 71 21.6 94 94 WSW 9 15 29.86 1011 10 16.0934 0 0
8:56 am 08:56 Cloudy 73 22.7 71 21.6 94 94 WSW 9 15 29.88 1012 10 16.0934 0 0
9:42 am 09:42 Cloudy 73 23 72 22 94 94 W 13 20 29.88 1012 10 16.0934 0 0
9:56 am 09:56 Cloudy 75 23.8 71 21.6 88 88 WSW 12 19 29.88 1012 10 16.0934 0 0
10:06 am 10:06 Cloudy 75 24 72 22 89 89 WSW 12 19 29.88 1012 10 16.0934 0 0
10:38 am 10:38 Partly Cloudy 79 26 72 22 79 79 W 13 20 29.85 1011 10 16.0934 0 0
10:48 am 10:48 Mostly Cloudy 79 26 72 22 79 79 W 15 24 29.85 1011 10 16.0934 0 0
10:56 am 10:56 Mostly Cloudy 79 26.1 71 21.6 76 76 W 13 20 29.89 1012 10 16.0934 0 0
11:44 am 11:44 Partly Cloudy 81 27 72 22 74 74 W 10 17 29.85 1011 10 16.0934 0 0
11:56 am 11:56 Mostly Cloudy 82 27.7 72 22.2 72 72 WSW 15 24 29.9 1012 10 16.0934 0 0
12:07 pm 12:07 Mostly Cloudy 82 28 72 22 70 70 WNW 10 17 29.85 1011 10 16.0934 0 0
12:28 pm 12:28 Mostly Cloudy 82 28 72 22 70 70 W 12 19 29.85 1011 10 16.0934 0 0
12:37 pm 12:37 Partly Cloudy 82 28 72 22 70 70 WSW 9 15 29.85 1011 10 16.0934 0 0
12:56 pm 12:56 Mostly Cloudy 83 28.3 72 22.2 70 70 SW 13 20 29.9 1013 10 16.0934 0 0
1:56 pm 13:56 Mostly Cloudy 80 26.6 71 21.6 74 74 SW 10 17 29.9 1013 10 16.0934 0 0
2:56 pm 14:56 Mostly Sunny 81 27.2 71 21.6 72 72 Calm 29.85 1011 10 16.0934 0 0
3:56 pm 15:56 Mostly Sunny 85 29.4 73 22.7 67 67 WSW 13 20 29.83 1010 10 16.0934 0 0
4:21 pm 16:21 Mostly Cloudy 84 29 73 23 70 70 SW 8 13 29.8 1009 10 16.0934 0 0
4:56 pm 16:56 Partly Cloudy 83 28.3 73 22.7 72 72 SW 13 20 29.84 1010 10 16.0934 0 0
5:56 pm 17:56 Sunny 85 29.4 73 22.7 67 67 WSW 13 20 29.84 1011 10 16.0934 0 0
6:56 pm 18:56 Sunny 84 28.8 74 23.3 72 72 WSW 10 17 29.84 1010 10 16.0934 0 0
7:56 pm 19:56 Mostly Sunny 83 28.3 74 23.3 74 74 SW 9 15 29.83 1010 10 16.0934 0 0
8:56 pm 20:56 Sunny 80 26.6 73 22.7 79 79 SW 10 17 29.84 1011 10 16.0934 0 0
9:56 pm 21:56 Clear 78 25.5 74 23.3 88 88 SW 8 13 29.85 1011 10 16.0934 0 0
10:56 pm 22:56 Clear 76 24.4 74 23.3 94 94 SSW 8 13 29.86 1011 10 16.0934 0 0
11:56 pm 23:56 Mostly Clear 76 24.4 75 23.8 96 96 W 9 15 29.86 1011 10 16.0934 0 0

Powered by AerisWeather